TimeMST,TemperatureF,Dew PointF,Humidity,Sea Level PressureIn,VisibilityMPH,Wind Direction,Wind SpeedMPH,Gust SpeedMPH,PrecipitationIn,Events,Conditions,WindDirDegrees,DateUTC
12:11 AM,21.2,19.4,93,30.25,1.2,Calm,Calm,-,N/A,,Overcast,0,2013-11-29 07:11:00
12:19 AM,21.2,19.4,93,30.25,0.8,Calm,Calm,-,N/A,,Mist,0,2013-11-29 07:19:00
12:32 AM,21.2,17.6,86,30.25,1.2,Calm,Calm,-,N/A,,Overcast,0,2013-11-29 07:32:00
12:41 AM,21.2,19.4,93,30.24,3.0,Calm,Calm,-,N/A,,Mostly Cloudy,0,2013-11-29 07:41:00
12:53 AM,21.0,19.0,92,30.34,8.0,Calm,Calm,-,N/A,,Scattered Clouds,0,2013-11-29 07:53:00
1:53 AM,21.0,18.0,88,30.33,10.0,Calm,Calm,-,N/A,,Partly Cloudy,0,2013-11-29 08:53:00
2:53 AM,19.9,17.1,89,30.34,10.0,Calm,Calm,-,N/A,,Clear,0,2013-11-29 09:53:00
3:53 AM,19.9,17.1,89,30.37,10.0,Calm,Calm,-,N/A,,Clear,0,2013-11-29 10:53:00
4:53 AM,19.9,17.1,89,30.38,10.0,Calm,Calm,-,N/A,,Clear,0,2013-11-29 11:53:00
5:53 AM,17.1,15.1,92,30.43,10.0,Calm,Calm,-,N/A,,Clear,0,2013-11-29 12:53:00
6:09 AM,17.6,15.8,93,30.30,2.0,WSW,3.5,-,N/A,,Partly Cloudy,240,2013-11-29 13:09:00
6:12 AM,17.6,15.8,93,30.30,1.0,WSW,3.5,-,N/A,,Mist,250,2013-11-29 13:12:00
6:19 AM,17.6,15.8,93,30.30,0.5,WSW,3.5,-,N/A,Fog,Light Freezing Fog,240,2013-11-29 13:19:00
6:53 AM,17.1,14.0,88,30.46,0.2,Calm,Calm,-,N/A,Fog,Light Freezing Fog,0,2013-11-29 13:53:00
7:26 AM,17.6,14.0,86,30.31,1.2,Calm,Calm,-,N/A,,Mostly Cloudy,0,2013-11-29 14:26:00
7:30 AM,17.6,14.0,86,30.31,3.0,Calm,Calm,-,N/A,,Mostly Cloudy,0,2013-11-29 14:30:00
7:37 AM,17.6,14.0,86,30.32,9.0,Calm,Calm,-,N/A,,Scattered Clouds,0,2013-11-29 14:37:00
7:53 AM,19.0,16.0,88,30.46,10.0,Calm,Calm,-,N/A,,Clear,0,2013-11-29 14:53:00
8:53 AM,21.0,19.9,96,30.47,10.0,Calm,Calm,-,N/A,,Clear,0,2013-11-29 15:53:00
9:53 AM,26.1,23.0,88,30.44,10.0,Calm,Calm,-,N/A,,Clear,0,2013-11-29 16:53:00
10:53 AM,28.0,25.0,88,30.43,10.0,SW,3.5,-,N/A,,Clear,230,2013-11-29 17:53:00
11:53 AM,32.0,27.0,82,30.38,10.0,Calm,Calm,-,N/A,,Clear,0,2013-11-29 18:53:00
12:53 PM,36.0,28.0,73,30.33,10.0,SW,3.5,-,N/A,,Clear,220,2013-11-29 19:53:00
1:53 PM,37.0,28.9,73,30.33,10.0,SW,5.8,-,N/A,,Clear,230,2013-11-29 20:53:00
2:53 PM,37.0,28.9,73,30.32,10.0,SW,4.6,-,N/A,,Clear,220,2013-11-29 21:53:00
3:53 PM,35.1,28.9,78,30.33,10.0,Calm,Calm,-,N/A,,Clear,0,2013-11-29 22:53:00
4:53 PM,30.0,26.1,85,30.37,10.0,Calm,Calm,-,N/A,,Clear,0,2013-11-29 23:53:00
5:53 PM,27.0,25.0,92,30.42,10.0,WSW,3.5,-,N/A,,Clear,240,2013-11-30 00:53:00
6:10 PM,24.8,24.8,100,30.30,2.0,SW,4.6,-,N/A,,Partly Cloudy,230,2013-11-30 01:10:00
6:12 PM,24.8,24.8,100,30.30,1.0,WSW,4.6,-,N/A,,Mist,250,2013-11-30 01:12:00
6:19 PM,24.8,24.8,100,30.30,0.2,Calm,Calm,-,N/A,Fog,Light Freezing Fog,0,2013-11-30 01:19:00
6:53 PM,24.1,23.0,96,30.45,0.2,SW,3.5,-,N/A,Fog,Light Freezing Fog,230,2013-11-30 01:53:00
7:53 PM,21.9,21.0,96,30.45,0.2,Calm,Calm,-,N/A,Fog,Light Freezing Fog,0,2013-11-30 02:53:00
8:53 PM,23.0,21.0,92,30.45,0.2,Calm,Calm,-,N/A,Fog,Light Freezing Fog,0,2013-11-30 03:53:00
9:53 PM,24.1,21.9,91,30.43,0.2,Calm,Calm,-,N/A,Fog,Light Freezing Fog,0,2013-11-30 04:53:00
10:53 PM,23.0,21.0,92,30.42,0.2,Calm,Calm,-,N/A,Fog,Light Freezing Fog,0,2013-11-30 05:53:00
11:53 PM,21.9,19.9,92,30.41,0.2,Calm,Calm,-,N/A,Fog,Light Freezing Fog,0,2013-11-30 06:53:00